Wind_Speed
10 10 12 12 11 11 11 11 13 14 14 14 15 14 13 15 15 15 16 16 17 19 20 20 22 23 20 18 20 19 18 18 17 16 15 14 13 13 11 10 10 10 10
12 12 13 13 13 11 11 11 12 12 13 15 15 15 13 11 13 17 20 19 17 17 20 22 23 25 23 19 21 22 21 20 20 17 16 15 14 13 13 12 12 13 13
15 15 13 13 13 12 12 12 12 14 15 16 17 18 15 13 16 17 18 23 19 19 20 22 23 24 25 21 22 23 21 20 20 20 19 17 15 15 16 16 14 14 13
15 18 17 16 14 14 13 13 12 12 14 18 19 20 14 17 17 21 19 18 19 19 20 17 23 23 23 24 21 23 21 22 22 22 22 20 17 16 18 17 16 15 15
16 19 17 16 14 16 16 16 15 15 15 15 17 20 19 20 21 18 17 16 19 22 20 16 17 23 25 24 22 19 19 21 26 25 24 23 22 20 19 19 18 17 16
17 17 16 17 14 16 17 16 17 16 17 17 15 16 16 22 22 21 19 20 19 21 19 21 15 16 22 24 20 20 19 23 23 23 25 25 25 22 21 21 20 19 18
21 22 20 15 16 15 17 16 16 16 19 17 13 17 14 15 23 21 19 22 21 23 18 15 18 16 16 18 23 23 22 23 22 22 22 23 26 26 23 22 22 21 20
14 14 13 13 14 14 14 15 15 14 15 12 7 11 5 7 10 22 19 24 24 19 21 18 17 16 16 14 15 22 25 24 21 20 20 22 24 26 26 24 24 23 22
9 12 13 13 13 15 15 14 15 13 13 12 12 6 4 3 3 5 12 15 15 18 19 19 20 17 16 14 13 15 19 20 18 18 20 23 24 24 25 26 26 25 24
8 8 9 10 12 14 15 13 12 13 12 14 11 11 15 8 1 3 4 5 6 10 14 16 19 18 17 15 14 13 14 15 15 15 17 19 23 24 24 24 25 24 25
6 4 2 4 9 13 14 14 14 13 14 15 12 9 11 10 10 5 3 2 6 6 5 11 11 13 15 18 12 12 14 13 12 12 13 15 16 19 23 25 25 25 24
3 2 6 6 8 11 13 13 13 12 14 12 12 12 13 8 4 7 6 6 2 5 4 7 8 11 12 13 15 11 12 12 13 13 11 12 17 19 21 22 23 24 25
3 4 10 8 10 9 10 12 12 10 11 12 12 12 11 9 9 10 11 6 5 4 2 6 7 5 6 8 8 8 6 8 10 10 10 11 13 18 23 22 22 23 26
5 10 10 10 7 7 8 8 6 6 5 6 8 9 10 11 11 13 12 7 2 5 5 2 3 2 5 7 7 9 6 7 7 7 7 8 10 11 16 21 21 21 23
2 4 6 7 5 2 2 1 2 3 4 4 3 5 8 8 8 8 12 13 8 3 3 3 3 3 4 4 7 5 4 5 5 7 9 10 11 11 14 19 23 23 23
2 3 4 4 4 4 5 4 3 2 4 6 7 7 5 4 3 1 1 7 9 4 2 3 6 3 4 4 5 3 4 7 10 10 12 12 13 16 18 17 19 24 24
5 5 5 5 5 5 4 5 4 3 4 4 5 7 8 7 5 4 4 5 5 6 3 5 10 9 6 6 5 5 6 9 12 15 15 17 19 20 20 22 22 22 25
5 5 5 4 5 5 5 5 5 5 6 6 8 8 9 8 7 6 6 7 7 6 4 1 6 7 7 8 8 10 11 13 14 14 15 22 24 26 24 24 24 24 23
4 4 4 5 5 5 5 6 6 6 7 7 8 9 10 9 9 9 9 7 6 7 8 7 5 2 5 8 7 11 15 18 18 21 20 23 20 18 22 24 24 23 23
5 4 4 5 5 5 5 5 5 5 6 7 8 8 9 10 8 7 7 7 9 8 7 5 6 7 11 10 11 13 15 13 13 15 20 22 22 23 25 24 22 22 21
4 4 4 3 3 3 3 3 4 4 5 6 6 6 8 9 9 9 8 8 8 9 8 5 6 4 7 8 10 14 17 18 19 17 20 20 19 18 17 17 17 21 21
4 3 3 4 4 5 6 6 6 5 7 5 4 4 3 5 6 9 12 12 9 7 10 11 14 13 15 13 12 15 16 17 14 17 19 18 15 18 20 21 20 21 18
3 5 4 4 4 4 6 6 7 4 4 3 3 3 4 5 6 10 12 14 12 10 10 11 14 15 17 17 16 17 17 17 19 20 20 24 21 24 23 23 23 24 25
4 4 4 5 4 3 3 2 3 2 2 2 2 2 4 5 6 12 13 14 14 15 14 14 15 17 17 17 17 18 20 21 22 23 21 23 22 24 22 22 22 24 27
5 6 4 4 5 4 1 1 3 6 4 6 6 6 6 8 8 13 14 16 17 17 16 15 15 20 21 19 17 17 20 20 19 18 18 21 22 21 20 21 23 23 24
5 3 4 3 3 3 1 3 4 9 9 10 10 8 10 6 12 14 16 19 20 19 18 21 22 21 17 18 18 18 17 20 20 18 13 16 20 18 17 17 12 11 12
Wind_Direction
253 255 255 261 273 279 273 269 263 263 255 257 256 256 261 266 264 264 265 246 257 243 239 234 230 227 227 235 228 225 223 226 226 229 230 233 232 238 242 232 237 240 234
255 261 258 265 269 272 269 267 260 255 256 255 254 255 257 260 267 266 262 264 246 250 246 246 234 229 233 239 228 224 227 227 231 236 232 232 234 237 238 237 234 233 236
260 255 262 265 269 267 267 263 264 251 251 260 263 265 256 254 258 255 258 263 263 260 250 245 246 240 235 232 227 226 234 236 233 234 243 238 233 233 239 235 235 236 235
275 277 271 264 268 261 263 263 260 265 254 253 260 262 263 263 261 266 265 259 249 257 247 237 238 240 235 231 228 225 234 241 242 239 240 241 240 234 237 240 239 238 237
292 287 276 269 262 259 261 261 260 256 259 259 255 260 259 248 265 265 258 257 252 252 257 239 239 237 238 233 226 219 229 235 239 242 240 241 243 241 239 240 240 239 239
283 289 277 271 265 261 257 255 256 258 260 263 257 260 257 253 258 256 255 250 243 250 248 241 240 241 228 224 222 216 220 235 234 240 241 241 241 241 242 241 242 244 243
268 261 279 271 256 264 265 267 266 268 273 277 279 273 272 255 243 251 259 250 261 249 261 233 233 233 232 228 228 226 224 229 234 241 245 245 242 241 242 241 241 241 244
250 259 263 265 263 259 260 268 272 280 281 277 277 298 285 270 249 249 248 260 250 252 235 231 232 227 237 217 223 229 232 233 238 241 245 249 247 244 242 240 240 242 243
239 247 256 257 264 264 267 266 267 266 276 281 272 257 289 273 328 247 249 239 246 233 229 230 220 231 234 236 224 225 227 236 236 244 250 248 247 245 245 244 243 244 244
201 234 245 256 264 270 271 267 266 259 254 257 272 256 251 263 294 303 343 303 257 240 226 220 225 233 234 217 223 228 199 214 226 236 241 242 248 244 244 247 247 245 245
158 136 300 294 279 276 274 270 266 250 246 253 258 270 290 259 243 236 278 300 327 291 257 235 235 214 219 211 227 231 228 220 223 232 235 237 234 235 241 245 247 248 247
252 47 353 320 288 282 281 275 271 263 247 246 254 270 258 270 254 227 252 283 233 265 299 276 237 219 212 220 215 219 222 228 228 234 241 252 252 246 242 244 244 246 248
245 293 321 304 285 286 293 291 284 276 267 262 253 273 271 274 262 256 261 280 244 254 202 234 243 193 194 194 178 181 213 213 205 210 247 257 266 254 244 244 248 248 243
328 336 330 322 314 282 273 270 278 273 289 268 264 262 264 277 276 255 241 239 260 249 238 163 124 202 191 176 178 183 179 193 217 233 254 268 275 274 252 249 253 254 249
3 13 14 17 24 27 351 340 336 349 316 314 313 284 283 289 282 263 248 258 241 214 192 94 76 120 130 140 155 162 176 204 224 252 262 272 279 283 272 263 254 254 256
26 30 36 46 50 42 46 53 50 7 333 320 308 307 305 333 27 52 256 273 234 261 149 102 114 182 191 185 192 197 226 265 278 276 277 283 286 280 275 274 264 254 253
70 64 54 47 49 47 56 62 68 31 1 4 347 6 25 11 27 24 19 16 23 353 265 152 178 194 250 246 222 242 255 271 273 267 281 290 290 282 276 270 267 265 257
108 88 80 71 66 65 66 71 64 58 50 37 36 38 45 48 54 65 81 54 32 21 334 252 200 204 221 227 251 262 266 271 285 288 287 282 285 281 277 272 266 265 262
101 96 88 75 66 63 62 67 68 60 55 44 36 44 46 53 57 55 61 56 38 20 27 4 342 316 274 287 276 279 272 269 262 263 273 281 275 277 280 272 262 261 262
119 105 93 90 83 75 69 59 56 55 60 61 57 57 53 51 49 44 47 44 32 27 20 1 321 307 306 291 299 283 277 254 269 268 272 271 270 268 275 272 263 260 260
115 126 122 97 77 52 37 46 46 52 62 61 59 67 66 65 51 41 20 9 352 335 322 294 227 270 268 284 279 284 284 279 277 273 277 273 269 256 263 267 267 260 257
125 113 90 82 56 54 66 85 83 77 75 69 61 60 70 52 21 13 358 352 337 326 314 307 299 300 294 280 275 279 284 284 287 280 279 271 269 271 269 268 264 266 254
115 95 87 78 74 77 88 90 94 66 62 42 18 358 316 16 1 350 336 327 317 301 293 294 291 290 294 288 288 282 274 277 274 277 284 276 272 269 267 266 264 265 265
136 103 97 100 105 106 108 74 53 357 338 330 321 313 322 328 331 340 333 323 317 310 300 292 293 294 291 287 280 274 277 276 273 273 264 266 272 268 269 265 263 264 266
138 140 149 134 131 136 169 317 323 304 307 293 290 293 307 314 315 333 329 319 313 308 305 292 292 296 295 299 282 275 270 269 273 271 271 267 270 273 271 273 270 266 268
141 142 195 175 142 124 268 293 278 296 298 292 290 278 285 273 319 329 325 315 307 308 313 303 294 288 282 288 278 249 266 271 272 277 279 268 268 267 273 271 258 264 262
Height
834 834 834 834 834 833 832 832 831 831 832 833 832 832 834 834 834 835 833 831 835 836 837 839 841 841 842 843 845 847 849 851 853 854 854 855 858 858 860 860 861 863 864
832 832 832 831 830 830 829 828 827 829 830 828 827 828 830 830 831 831 831 830 829 831 833 835 834 836 839 840 840 842 845 848 850 851 852 853 854 856 858 858 859 861 862
830 829 829 830 828 828 827 826 825 824 825 825 825 824 826 824 827 827 828 826 826 827 827 830 832 832 833 835 837 839 842 845 847 849 849 851 852 854 855 856 856 858 859
826 826 826 825 824 824 824 823 822 820 820 820 820 820 820 821 822 821 822 822 822 822 821 823 826 826 827 829 832 834 837 841 842 844 845 848 849 851 853 853 854 855 856
822 821 821 821 821 821 820 820 819 819 817 816 816 815 815 813 817 816 817 817 817 818 816 816 818 821 822 825 827 830 833 836 837 839 841 843 845 847 849 850 851 852 853
811 816 816 815 816 816 815 815 814 814 814 811 811 809 809 808 809 810 810 811 812 812 811 812 814 815 817 819 822 825 826 831 833 833 836 838 840 842 844 845 846 849 850
809 808 808 809 811 811 811 812 811 812 810 810 809 804 803 802 802 803 805 805 806 806 806 805 810 811 812 814 817 821 824 826 828 829 830 832 835 837 839 841 842 844 846
805 805 806 806 807 807 807 807 807 807 806 806 806 805 800 797 798 797 798 798 800 801 803 805 806 806 809 808 812 814 816 819 822 824 825 828 830 832 834 836 837 840 841
801 802 802 803 803 803 803 804 802 803 803 803 803 805 802 797 797 793 793 794 794 796 797 799 801 803 804 806 808 810 811 813 815 817 820 823 825 827 829 832 833 834 836
794 798 798 799 799 799 799 799 799 800 800 799 800 799 799 799 799 795 792 793 793 792 793 795 797 799 800 802 803 804 807 809 810 813 815 818 821 823 825 826 828 829 830
792 791 794 795 796 796 795 795 795 795 795 796 796 797 795 797 797 797 794 792 792 792 791 792 792 794 796 798 800 802 803 805 807 810 812 813 816 818 819 821 822 823 825
793 788 790 791 792 794 793 793 793 793 792 792 793 793 794 794 792 796 793 791 792 790 790 790 789 792 793 794 796 797 800 802 804 807 810 810 811 813 815 815 816 817 819
789 787 785 787 788 790 790 792 790 790 790 791 791 791 791 791 791 790 791 791 791 788 788 789 789 789 791 793 794 796 797 800 802 804 805 806 806 806 808 810 811 811 812
788 785 785 784 784 787 788 788 788 788 788 789 788 789 789 789 788 788 788 789 788 788 789 788 788 789 790 792 794 795 796 798 801 801 803 804 804 802 802 804 805 806 806
788 787 788 788 788 788 788 787 787 787 787 787 787 787 787 786 785 785 785 785 787 788 787 788 789 790 790 792 792 795 798 797 798 799 800 800 800 799 799 798 798 799 800
791 790 790 790 790 791 789 789 788 788 788 787 787 786 786 786 784 785 784 783 784 785 787 788 790 792 792 793 793 794 795 796 795 796 796 795 795 795 794 794 793 793 793
793 794 793 794 792 792 792 792 791 791 790 788 788 788 788 787 785 787 786 787 785 786 785 788 789 789 792 791 790 792 792 792 792 791 791 791 791 790 789 788 787 787 786
795 795 796 796 795 795 795 793 794 793 793 792 790 791 790 788 788 788 787 788 789 789 790 787 788 789 789 788 788 789 789 788 788 787 786 786 786 784 782 781 781 780 780
798 798 797 797 797 798 797 796 797 796 795 795 795 794 792 792 793 792 791 790 790 791 789 790 790 788 787 787 785 785 784 783 782 783 782 781 779 778 776 775 774 773 772
797 798 799 798 799 799 799 799 798 797 796 796 797 796 795 795 795 795 795 794 793 791 790 790 790 788 788 784 783 782 781 779 778 778 777 775 773 772 770 768 768 767 767
799 799 800 800 800 799 799 799 798 799 798 798 798 798 797 797 797 796 795 795 794 791 789 788 787 786 786 785 783 781 778 776 774 774 772 768 766 764 762 762 762 761 761
799 800 801 799 800 800 799 799 799 800 798 799 799 800 799 799 798 797 796 795 794 793 791 788 785 781 782 781 780 779 775 772 768 768 766 763 762 760 759 758 757 756 756
799 799 799 799 800 801 800 801 800 800 799 800 801 800 799 798 799 798 796 794 792 791 789 788 785 782 780 779 777 776 773 771 767 765 764 759 759 755 754 751 751 750 749
798 799 800 798 799 801 801 801 801 801 801 801 801 800 800 799 797 797 795 792 790 788 785 784 781 779 778 776 774 772 770 767 765 761 759 754 753 749 747 744 743 743 743
797 794 798 797 795 796 798 799 800 801 800 801 800 800 798 797 795 794 792 789 786 783 780 777 775 773 771 769 768 768 764 759 751 749 750 746 745 742 740 737 736 735 735
798 797 799 797 797 796 795 796 798 798 797 797 796 795 793 793 793 792 790 786 781 777 776 773 770 766 763 762 760 760 759 755 750 744 744 744 741 739 734 729 728 729 728